Weather Roundup
Issued by NWS

Home | Current Version | Previous Version | Graphics & Text | Print | Product List | Glossary Off
Versions: 1 2 3 4 5 6 7 8 9 10 11 12 13 14 15 16 17 18 19 20 21 22 23 24 25 26 27 28 29 30 31 32 33 34 35 36 37 38 39 40 41 42 43 44 45 46 47 48 49 50

657
NZUS93 KARX 260110
HRRWXR

CURRENT HOURLY OBSERVATIONS ACROSS
MUCH OF THE UPPER MISSISSIPPI VALLEY
NATIONAL WEATHER SERVICE LA CROSSE WI
800 PM CDT MON SEP 25 2017


...SOUTHEAST MINNESOTA...


CITY           SKY/WX    TMP DP  RH WIND       PRES   REMARKS
ROCHESTER      TSTM      62  61  96 SW9G25    30.02R FOG
ROCHESTER/MAYO CLOUDY    63  63 100 W7        30.00R
WINONA         CLOUDY    70  68  94 CALM      29.94S
AUSTIN         RAIN      63  61  94 NE10      29.96F
ALBERT LEA     LGT RAIN  64  63  94 NE7       29.96F
DODGE CENTER   RAIN      61  59  94 E5        29.99R
PRESTON        TSTM      67  65  92 NW8       29.99S
OWATONNA       DRIZZLE   61  59  94 CALM      29.98S
FARIBAULT      CLOUDY    61  57  88 CALM      29.99R
$$

...ELSEWHERE IN MINNESOTA...


CITY           SKY/WX    TMP DP  RH WIND       PRES   REMARKS
MINNEAPOLIS    LGT RAIN  60  58  92 N9G21     29.97S
INTNL FALLS    CLOUDY    53  48  83 NE6       30.09R
DULUTH         CLOUDY    56  55  97 N8        30.02R
RED WING       CLOUDY    63  57  82 CALM      29.96S
REDWOOD FALLS  LGT RAIN  56  54  93 NW6       30.01R FOG
MANKATO        LGT RAIN  58  57  97 N7        30.00
WORTHINGTON    LGT RAIN  54  53  97 N10       30.01F
FAIRMONT       NOT AVBL
$$

...SOUTHWEST WISCONSIN...


CITY           SKY/WX    TMP DP  RH WIND       PRES   REMARKS
LA CROSSE      MOCLDY    71  68  90 S7        29.93R
PRAIRIE DU CHI CLOUDY    67  64  88 CALM      29.92S
BOSCOBEL       CLOUDY    68  65  90 CALM      29.92S
LONE ROCK      MOCLDY    70  67  90 SW8       29.95R
PLATTEVILLE    CLOUDY    72  64  76 E7        29.93F
FORT MC COY    CLOUDY    66  64  94 CALM      29.95R
CAMP DOUGLAS   MOCLDY    68  64  88 W5        29.94R
MAUSTON-NEW LI CLOUDY    68  65  91 NW3       29.93S
VIROQUA        CLOUDY    66  65  99 CALM      29.98R
WIS DELLS      PTCLDY    70  62  76 CALM      29.94S
$$

...ELSEWHERE IN WISCONSIN...


CITY           SKY/WX    TMP DP  RH WIND       PRES   REMARKS
MILWAUKEE      PTCLDY    78  59  51 S8        29.94R
MADISON        PTCLDY    74  63  68 NW3       29.94R
GREEN BAY      CLEAR     75  64  68 S6        29.92R
EAU CLAIRE     CLOUDY    64  61  90 NW6       29.96R
BLACK RVR FLS  FAIR      67  67 100 CALM      29.94R FOG
MEDFORD        MOCLDY    67  64  89 CALM      29.96R
WAUSAU         LGT RAIN  71  65  81 NW6       29.94R
WIS RAPIDS     MOCLDY    69  64  84 CALM      29.96R
MARSHFIELD     CLOUDY    69  62  78 W6        29.94R
RICE LAKE      CLOUDY    59  58  94 N3        29.99F
$$

...NORTHEAST IOWA...


CITY           SKY/WX    TMP DP  RH WIND       PRES   REMARKS
WATERLOO       CLOUDY    66  65  96 NW5       29.93R
DUBUQUE        CLEAR     71  65  81 NE10      29.92S
DECORAH        DRIZZLE   66  66 100 NW5       29.97R
MASON CITY     MOCLDY    64  63  96 CALM      29.98R
CHARLES CITY   HVY RAIN  66  66 100 N7        29.96R
OELWEIN        DRIZZLE   68  68 100 N8        29.97R
$$

...ELSEWHERE IN IOWA...


CITY           SKY/WX    TMP DP  RH WIND       PRES   REMARKS
DES MOINES     TSTM      67  66  97 CALM      29.93R FOG
IOWA CITY      CLOUDY    82  62  50 S10       29.90S
FORT DODGE     CLOUDY    63  63 100 N3        29.95R
MARSHALLTOWN   CLOUDY    67  66  97 W7        29.95R
CEDAR RAPIDS   PTCLDY    78  64  61 S5        29.89R
$$

...NORTHERN ILLINOIS...


CITY           SKY/WX    TMP DP  RH WIND       PRES   REMARKS
CHICAGO-OHARE  PTCLDY    81  55  40 SE8       29.93R
CHICAGO-MIDWAY PTCLDY    82  59  45 SE7       29.94R
MOLINE         CLOUDY    73  69  87 CALM      29.89S
ROCKFORD       PTCLDY    78  58  49 SW5       29.93R
PEORIA         CLEAR     78  61  55 CALM      29.91R
$$

NOTE: "FAIR" INDICATES FEW OR NO CLOUDS BELOW 12,000 FEET WITH NO
SIGNIFICANT WEATHER AND/OR OBSTRUCTIONS TO VISIBILITY. WIND
SPEEDS ARE IN MILES-PER-HOUR.




USA.gov is the U.S. government's official web portal to all federal, state and local government web resources and services.